Theta_e
332 332 336 333 332 332 332 334 336 338 344 343 343 344 345 345 343 343 345 343 341 340 339 337 334 332 331 330 327 324 322 322 322 320 320 320 320 320 321 320 320 320 319 319
331 331 333 332 332 332 333 336 337 340 342 343 345 344 345 345 343 342 343 341 341 339 340 339 336 334 332 331 328 325 322 322 321 321 321 322 322 321 320 320 320 321 319 318
330 332 331 332 333 334 335 334 335 335 339 342 341 345 346 344 342 343 342 342 340 339 340 341 337 336 333 332 329 326 323 323 322 323 321 322 322 322 320 320 320 320 319 318
330 332 332 333 335 333 342 334 335 337 340 341 337 335 349 347 346 344 343 341 340 339 338 340 336 337 334 332 329 326 324 323 321 322 323 324 322 322 322 320 321 320 320 318
330 331 333 334 335 333 335 335 337 338 340 341 345 334 347 346 346 345 343 341 339 339 338 338 334 335 334 332 329 325 324 323 322 323 323 323 322 321 321 320 321 319 319 318
331 331 332 336 336 335 336 339 342 342 345 347 342 334 341 344 339 338 341 339 338 338 339 337 335 334 334 331 328 325 325 323 323 322 322 323 323 322 322 321 321 319 318 318
330 332 335 336 335 336 336 341 347 345 351 342 339 334 337 338 336 336 337 339 338 338 338 338 337 336 334 332 329 325 325 324 322 321 322 322 322 322 322 321 320 320 318 318
332 335 336 335 335 335 338 338 341 342 338 337 345 337 336 336 336 337 337 337 339 338 338 339 337 335 333 333 330 326 324 324 322 321 322 322 322 321 322 321 321 321 319 318
334 335 335 334 333 333 338 339 337 339 339 339 341 336 338 337 338 338 339 338 339 338 338 339 338 336 332 333 331 326 324 323 322 321 322 322 322 321 321 321 321 321 320 318
334 336 335 334 333 333 335 335 335 338 338 338 335 338 338 335 336 339 339 339 338 340 339 339 337 336 333 332 331 327 324 323 322 322 321 321 321 321 320 321 321 320 320 319
333 335 335 336 335 334 336 338 341 340 338 338 342 335 335 336 337 337 338 339 339 340 339 339 338 335 334 332 330 328 324 323 322 322 321 321 321 321 320 320 320 320 320 319
332 336 337 335 335 335 333 334 336 337 336 334 335 336 336 336 336 338 337 336 337 338 337 336 337 334 333 332 330 327 324 322 321 321 321 321 321 321 321 321 320 319 320 320
335 335 337 336 335 336 339 337 338 336 338 340 338 340 337 341 339 338 336 334 336 337 337 336 335 333 333 332 330 328 324 322 321 321 321 321 322 322 322 321 321 320 320 321
337 337 338 338 334 338 340 337 336 335 338 336 334 335 336 342 343 338 337 335 335 336 337 335 335 333 332 332 331 329 324 322 321 321 321 321 322 322 322 322 321 320 320 320
341 340 334 335 334 334 335 335 332 333 334 336 335 335 335 337 337 337 337 337 337 335 335 335 336 334 332 331 330 329 325 323 321 321 321 321 321 321 322 321 321 320 320 321
343 342 336 334 334 334 332 332 331 331 333 333 334 336 339 337 336 337 338 339 339 338 337 335 335 335 334 332 330 329 326 323 322 322 321 321 321 321 321 321 321 321 321 321
343 338 337 335 336 338 332 331 333 330 330 333 337 337 338 338 339 340 340 339 338 337 337 337 336 335 334 332 330 329 327 324 323 322 321 321 321 321 321 321 321 321 321 321
343 342 337 335 333 333 334 334 332 333 334 337 336 337 339 340 339 339 336 334 332 335 336 338 336 335 334 332 330 329 327 324 323 322 321 321 320 320 320 321 322 322 323 323
340 341 337 337 334 331 331 339 338 336 335 339 339 339 339 339 338 338 331 330 332 334 336 337 336 334 333 332 330 329 327 323 322 321 321 321 321 320 320 321 322 323 323 323
340 344 342 337 335 337 338 339 338 336 337 340 339 340 340 338 338 335 332 333 335 335 335 334 333 333 333 332 330 329 325 322 322 321 320 320 321 321 321 322 322 323 323 323
341 339 337 335 335 333 339 339 336 336 348 339 337 338 338 337 337 334 335 336 334 333 333 332 331 332 332 330 329 326 324 322 321 320 320 320 321 321 322 322 323 324 324 324
338 339 337 336 337 337 341 338 337 345 341 340 339 339 339 338 334 334 335 335 333 331 329 328 329 331 330 328 326 325 324 323 322 321 321 321 322 323 322 323 324 324 325 326
340 339 349 343 348 344 341 346 344 342 342 341 342 340 338 337 334 333 334 335 333 330 328 328 329 330 329 327 326 325 326 325 324 323 324 325 326 327 327 328 329 329 328 328
340 342 339 341 340 341 340 340 340 340 342 342 339 337 336 336 334 334 333 334 333 331 330 327 328 328 328 327 326 327 327 327 328 328 328 329 329 330 329 328 329 329 329 328
333 343 338 340 341 338 339 343 342 342 340 337 336 335 334 333 333 333 333 334 333 331 331 328 327 328 327 328 329 330 330 329 329 330 330 330 329 327 329 329 330 330 328 327
331 336 337 345 344 345 345 341 339 339 337 334 332 332 331 332 333 333 334 333 333 332 331 332 330 331 330 330 331 330 330 330 330 330 329 329 329 329 329 329 327 326 324 323
Wind_Speed
14 7 16 7 14 11 7 7 5 6 5 6 6 3 13 15 13 9 9 9 10 8 11 10 7 4 4 2 6 8 9 8 7 9 10 9 9 8 8 9 10 13 15 16
7 13 10 8 9 5 4 5 12 3 3 6 4 9 12 17 15 14 13 10 10 8 10 10 9 7 3 2 4 6 7 8 7 7 8 6 6 6 7 8 8 12 14 15
13 6 4 7 7 7 6 10 9 8 2 10 10 14 12 13 13 14 13 13 10 9 11 13 10 8 6 3 1 3 4 5 6 6 6 7 4 5 9 9 10 11 12 13
9 7 6 8 8 10 18 7 5 3 8 0 3 6 13 12 12 12 12 12 12 10 8 10 12 11 8 4 3 2 2 3 4 5 4 4 8 7 7 9 10 11 10 12
11 2 7 12 11 5 8 6 7 7 12 8 11 7 10 11 10 13 13 13 11 11 11 11 13 12 9 8 6 3 1 2 3 2 4 7 6 8 9 9 9 9 8 9
9 1 7 7 1 4 2 7 8 12 17 3 4 5 7 6 4 5 14 14 10 11 10 9 9 10 10 9 6 4 3 1 2 2 2 4 6 7 8 9 9 10 10 10
14 14 6 8 7 4 8 15 4 3 4 5 5 2 8 9 3 6 5 15 15 13 9 10 11 12 10 9 6 5 3 2 1 1 2 4 5 5 7 7 10 10 11 10
12 5 4 9 11 7 7 8 8 13 11 10 25 1 6 8 5 4 5 7 14 15 12 10 13 9 12 10 8 5 5 3 3 1 1 3 5 7 8 8 9 10 11 11
9 5 13 8 3 8 2 7 9 9 14 5 2 8 14 5 3 1 6 8 10 10 8 11 12 11 9 11 9 6 4 3 4 3 2 2 3 5 6 6 8 8 8 11
9 5 11 13 7 10 9 10 10 7 9 10 7 9 5 6 8 4 4 7 9 7 9 10 9 12 11 11 9 7 6 6 6 6 4 3 3 4 5 7 6 8 8 9
12 5 3 7 10 14 7 11 7 17 5 10 12 9 8 5 6 3 2 7 8 10 12 11 11 14 12 11 11 9 8 7 7 7 6 5 5 6 6 8 8 7 9 9
13 5 12 14 7 13 10 14 8 7 12 14 12 11 6 2 4 5 2 5 7 8 7 7 12 14 14 13 11 9 8 7 6 7 8 7 7 7 8 9 10 9 11 10
4 6 10 17 6 4 10 22 19 8 4 15 10 7 5 16 3 4 3 2 4 5 6 7 11 15 15 14 12 9 9 8 6 7 8 9 9 9 9 9 10 11 11 11
3 9 10 14 9 4 7 23 22 10 7 14 16 15 6 14 17 4 2 1 4 9 9 9 10 14 15 15 14 11 9 7 7 7 8 8 8 10 10 10 10 10 10 12
4 9 15 14 15 9 8 17 13 10 11 13 18 20 15 11 4 4 5 3 4 5 7 9 10 11 14 15 13 11 10 8 7 8 8 7 8 8 9 9 10 11 11 12
4 9 9 13 13 10 13 12 15 13 9 12 16 15 15 7 14 5 1 3 6 6 7 8 11 14 14 14 13 11 9 8 8 8 9 8 8 8 9 10 10 12 13 13
6 9 5 14 9 18 11 6 11 11 11 12 9 13 10 10 3 6 7 8 7 8 8 7 8 11 11 12 12 10 9 8 8 9 10 9 9 9 10 10 11 12 14 15
6 8 10 9 10 12 6 5 5 6 11 8 11 6 7 8 6 10 17 12 9 10 8 3 4 6 10 10 10 9 7 8 8 9 10 10 10 11 11 12 12 13 15 16
7 8 10 7 10 16 13 9 1 9 12 4 8 6 4 4 3 12 8 7 8 8 7 5 3 5 8 9 8 7 6 7 8 9 11 10 11 11 12 13 14 15 16 18
8 7 9 11 13 12 6 8 5 2 8 6 4 4 7 7 1 6 5 8 6 7 6 5 6 8 8 7 6 6 6 7 8 10 10 10 10 11 13 14 16 17 18 21
11 10 13 12 13 15 7 11 1 7 4 4 4 3 4 6 5 6 7 7 8 9 9 8 8 8 7 6 4 4 6 8 8 9 10 11 12 13 14 16 18 20 21 23
9 9 10 12 14 15 16 8 4 4 2 3 4 5 5 3 3 4 6 7 8 8 8 8 8 8 7 6 5 4 4 6 8 9 11 12 13 15 17 18 21 21 23 25
7 6 7 7 6 5 10 13 4 1 2 5 4 7 5 3 3 4 3 6 7 8 7 7 7 8 6 5 4 4 4 6 8 10 14 15 15 18 21 20 23 24 24 26
9 2 5 8 1 1 3 3 1 1 2 4 3 4 5 6 7 5 4 5 6 7 7 6 6 6 5 4 4 4 7 9 14 17 18 18 21 22 21 24 23 24 25 24
7 3 9 9 11 4 4 8 4 6 4 4 5 5 5 6 7 9 5 6 7 7 6 5 4 3 3 1 3 5 6 7 14 18 19 19 20 24 23 23 23 21 22 24
11 3 7 4 7 4 7 6 7 8 8 8 8 8 9 10 10 10 6 3 4 4 4 3 0 6 8 4 6 9 12 12 13 17 18 18 21 23 22 21 23 22 25 25
Wind_Direction
203 239 249 314 1 353 341 329 23 73 94 262 255 266 169 190 197 213 209 179 207 198 144 171 189 166 141 70 47 35 33 36 40 34 22 16 7 15 7 11 6 5 4 4
246 255 55 355 321 297 289 312 50 139 138 245 149 250 178 190 198 204 205 219 200 189 160 175 195 193 191 115 47 40 28 32 35 39 25 10 359 357 354 2 5 5 5 6
278 22 9 313 253 259 37 7 4 355 215 233 278 220 192 192 198 208 214 195 227 182 182 173 195 203 195 181 101 57 33 42 37 18 24 9 1 305 4 353 6 1 6 9
265 56 325 257 264 323 82 341 308 281 276 205 276 325 176 191 205 209 217 217 210 203 185 172 173 194 204 191 157 134 45 36 53 27 32 9 346 2 351 352 3 353 6 8
238 250 243 261 33 332 15 319 287 283 266 277 178 299 145 172 192 211 216 217 213 212 181 197 173 185 192 173 186 157 126 57 40 51 19 347 3 351 354 358 347 351 6 8
271 53 297 32 153 300 21 263 3 298 328 129 315 20 75 123 7 251 186 197 179 216 184 179 156 162 176 173 184 163 172 132 37 4 356 350 341 345 343 358 334 348 352 359
222 219 160 202 178 190 263 296 251 222 247 159 82 211 32 30 39 311 212 180 182 199 212 168 173 164 177 177 196 185 186 198 130 352 321 337 333 307 319 345 357 325 346 355
253 150 215 196 259 330 220 330 355 315 337 340 17 356 88 56 35 326 278 207 185 192 208 184 169 157 182 180 191 198 185 226 196 252 303 333 332 335 313 6 340 333 337 346
286 198 180 172 259 267 181 284 355 307 304 271 169 346 109 145 133 291 244 242 195 194 199 193 180 163 180 173 187 205 208 197 212 222 253 287 315 324 332 324 313 331 330 331
305 241 213 156 222 239 268 332 291 212 304 339 303 35 317 43 46 89 243 225 228 182 214 196 199 159 182 181 182 198 205 211 218 220 225 254 293 299 318 312 302 313 316 319
256 240 149 298 214 257 170 273 43 292 299 316 338 333 79 15 62 39 233 194 215 205 214 179 199 164 188 187 194 195 210 219 217 230 234 242 267 290 303 311 312 306 304 307
238 274 262 249 16 297 292 282 266 327 327 329 298 298 178 264 122 125 269 201 215 210 209 186 182 169 190 192 203 191 218 239 231 225 235 241 255 273 286 296 303 300 290 293
189 238 255 255 261 319 2 312 319 256 315 270 286 321 261 15 266 155 170 243 198 221 211 213 182 177 194 197 202 211 206 229 235 231 236 236 246 259 270 283 292 299 299 300
8 260 267 284 290 142 209 245 262 315 283 301 303 329 304 167 233 139 132 207 236 180 219 220 195 190 199 199 202 206 213 228 226 232 243 255 262 266 268 277 282 288 291 293
236 262 260 259 272 272 246 246 300 289 294 285 304 310 307 323 82 91 113 202 268 245 200 214 216 202 203 198 204 208 211 215 232 235 249 259 266 266 264 272 275 279 284 286
207 271 280 281 257 264 273 284 284 289 297 309 311 311 27 102 262 74 180 278 291 287 251 220 212 202 210 197 210 206 214 222 231 242 255 264 270 265 262 269 269 271 276 282
218 272 255 268 83 235 284 320 334 340 319 318 301 335 333 328 11 358 31 344 349 326 305 223 224 191 213 205 207 211 212 221 230 247 260 266 266 261 265 270 272 274 275 279
243 252 275 277 280 281 56 247 7 329 294 331 333 316 12 347 0 36 27 15 3 354 337 316 212 174 197 207 200 211 217 222 235 250 264 268 267 265 267 271 273 279 283 283
242 262 272 278 274 292 266 65 191 308 307 6 335 340 330 1 34 61 345 22 25 14 27 21 88 168 168 192 195 210 233 244 247 258 266 270 273 276 278 279 283 284 285 284
227 249 272 281 290 284 70 109 230 323 282 51 18 356 348 335 70 107 103 75 74 74 75 88 116 131 161 177 191 217 249 254 254 263 268 275 280 283 284 284 284 283 279 279
213 224 244 248 261 279 89 137 177 288 98 208 14 21 332 337 33 113 114 100 101 112 113 120 126 134 158 171 198 248 271 270 271 272 273 272 274 278 276 277 275 274 274 274
287 280 271 256 276 255 21 343 1 48 78 21 2 10 328 67 146 162 123 133 135 134 138 138 145 141 159 173 196 232 271 288 287 281 276 277 281 278 281 277 273 272 274 274
240 284 318 319 353 100 186 229 90 37 12 3 24 13 348 320 249 173 176 166 161 156 155 153 151 154 168 179 218 273 292 295 292 286 283 281 280 277 277 279 277 275 275 273
198 166 267 297 197 257 122 141 233 233 39 64 50 28 12 349 327 287 204 203 190 172 170 162 170 164 179 198 217 257 304 317 310 292 288 287 285 284 286 285 284 282 282 286
351 131 285 282 259 240 135 47 29 75 117 108 88 50 23 1 345 324 294 187 226 200 181 171 183 156 225 328 290 335 328 314 310 304 300 299 301 295 290 292 293 295 297 302
284 256 276 4 3 73 84 100 97 90 72 55 40 20 359 353 346 344 351 10 208 178 193 176 114 42 19 344 36 0 351 340 323 314 312 316 305 308 315 320 314 312 313 309